User: anonymous   Login
Location: Caltech
(34.1382°N, 118.1253°W)
Time: 05:05:10
(UTC-07:00)
Language:

Cosmos 1508 Rocket - Orbit

View from above orbital plane
View from above orbital plane
View from above satellite
View from above satellite

Ground track
Ground track

The orbit data is extracted from the following two-line orbital elements,

1 14484U 83111B   15116.48211465  .00122681  33065-5  63978-3 0  9998
2 14484 082.8248 018.9254 0100902 203.7223 210.7888 15.73499661620996
Epoch (UTC): 26 April 2015 11:34:14
Eccentricity: 0.0100902
inclination: 82.8248°
perigee height: 281 km
apogee height: 417 km
right ascension of ascending node: 18.9254°
argument of perigee: 203.7223°
revolutions per day: 15.73499661
mean anomaly at epoch: 210.7888°
orbit number at epoch: 62099

The dashed part of the orbit path shows where the satellite is in the earth's shadow,  

DLR